This demonstration page uses our WeatherBlox Daily Observations layout. Learn more.

Left ArrowRight Arrow

Hourly Observations for November 7, 2015

Temp ( °F °C ) Dew Point ( °F °C ) Humidity (%) Winds ( mph kmh ) Pressure ( in mb ) Visibility ( mi km ) Precip ( " mm )
12:51 am 00:51 Clear 43 6.1 34 1.1 71 71 SSE 5 7 30.07 1018 10 16.0934 N/A
1:51 am 01:51 Clear 41 5 33 0.6 73 73 NNE 3 6 30.08 1019 10 16.0934 N/A
2:51 am 02:51 Clear 40 4.4 33 0.6 77 77 N N/A 30.08 1019 10 16.0934 N/A
3:51 am 03:51 Clear 39 3.9 32 undefined 76 76 SE 5 7 30.08 1019 10 16.0934 N/A
4:51 am 04:51 Clear 39 3.9 33 0.6 79 79 ESE 6 9 30.09 1019 10 16.0934 N/A
5:51 am 05:51 Clear 39 3.9 33 0.6 79 79 ESE 6 9 30.11 1020 10 16.0934 N/A
6:51 am 06:51 Sunny 40 4.4 33 0.6 77 77 SSE 8 13 30.14 1021 10 16.0934 N/A
7:51 am 07:51 Sunny 46 7.8 33 0.6 61 61 SSE 8 13 30.16 1021 10 16.0934 N/A
8:51 am 08:51 Sunny 55 12.8 32 undefined 42 42 SSE 8 13 30.16 1021 10 16.0934 N/A
9:51 am 09:51 Sunny 59 15 29 -1.7 32 32 SSE 7 11 30.15 1021 10 16.0934 N/A
10:51 am 10:51 Sunny 63 17.2 27 -2.8 26 26 SSE 9 15 30.13 1020 10 16.0934 N/A
11:51 am 11:51 Sunny 66 18.9 28 -2.2 24 24 S 12 19 30.11 1020 10 16.0934 N/A
12:51 pm 12:51 Sunny 68 20 28 -2.2 22 22 S 8 13 30.07 1018 10 16.0934 N/A
1:51 pm 13:51 Sunny 71 21.7 28 -2.2 20 20 S 8 13 30.03 1017 10 16.0934 N/A
2:51 pm 14:51 Sunny 72 22.2 27 -2.8 19 19 SSE 8 13 30.01 1016 10 16.0934 N/A
3:51 pm 15:51 Sunny 73 22.8 26 -3.3 17 17 SSE 17 28 30.01 1016 10 16.0934 N/A
4:51 pm 16:51 Sunny 70 21.1 26 -3.3 19 19 SE 16 26 30.01 1016 10 16.0934 N/A
5:51 pm 17:51 Clear 65 18.3 28 -2.2 25 25 ESE 9 15 30.04 1017 10 16.0934 N/A
6:51 pm 18:51 Clear 59 15 29 -1.7 32 32 E 8 13 30.07 1018 10 16.0934 N/A
7:51 pm 19:51 Clear 58 14.4 30 -1.1 35 35 ESE 6 9 30.08 1019 10 16.0934 N/A
8:51 pm 20:51 Clear 54 12.2 30 -1.1 40 40 ESE 5 7 30.08 1019 10 16.0934 N/A
9:51 pm 21:51 Clear 55 12.8 31 -0.6 40 40 E 9 15 30.09 1019 10 16.0934 N/A
10:51 pm 22:51 Clear 56 13.3 34 1.1 44 44 ESE 8 13 30.09 1019 10 16.0934 N/A
11:51 pm 23:51 Clear 56 13.3 36 2.2 47 47 ESE 9 15 30.09 1019 10 16.0934 N/A

Powered by AerisWeather